Presure
151 126 135 156 143 153 153 163 151 138 170 152 158 166 171 166 183 176 170 181 189 171 189 161 158 159 170 173 171 163 179 156 167 155 161 186 167 158 181 170 165 163 170 197 199
157 149 155 134 157 138 147 140 153 152 165 146 158 164 140 159 174 173 163 170 175 175 172 178 179 168 177 174 161 158 174 175 181 190 162 184 168 175 161 201 197 210 183 172 186
118 121 146 167 127 149 145 143 150 134 139 161 149 142 143 169 156 177 160 168 162 173 170 178 172 171 165 178 179 173 151 150 152 152 161 160 185 195 179 185 165 202 197 169 166
170 161 109 163 144 149 165 169 135 146 172 149 164 164 165 160 160 168 175 170 169 162 170 161 154 161 163 175 163 164 166 169 178 180 183 183 186 175 181 175 199 161 163 190 206
119 145 140 131 152 137 154 167 148 150 169 162 149 161 151 163 170 169 164 163 161 167 159 174 177 168 171 159 168 180 167 173 171 175 176 183 179 175 174 173 191 193 185 179 182
128 143 144 172 141 118 125 134 154 161 132 160 171 156 161 163 146 174 139 162 165 159 160 166 158 178 167 166 160 179 173 165 177 179 174 174 161 170 185 187 177 180 184 198 179
157 116 98 145 170 187 108 164 165 158 142 163 152 127 150 164 148 126 149 163 157 162 158 155 139 177 147 161 163 162 162 169 161 165 175 178 180 173 180 183 169 177 176 187 198
128 127 128 137 158 155 130 187 152 165 173 185 142 172 152 165 150 169 158 168 154 154 160 164 167 170 166 166 159 169 165 160 169 161 177 150 167 161 170 182 172 181 188 179 190
143 115 110 119 126 125 107 118 143 140 151 140 160 144 125 156 154 133 172 147 153 138 157 161 160 143 168 154 161 156 159 155 167 173 169 166 168 163 168 172 169 175 180 171 177
154 169 135 135 138 135 135 142 147 132 175 153 153 158 148 137 161 150 140 154 161 155 143 146 161 158 148 165 163 167 160 164 172 151 161 170 167 169 171 177 168 176 173 185 183
200 121 125 157 122 127 123 105 132 175 135 146 134 164 161 151 141 153 160 166 136 160 172 169 170 131 126 137 160 169 159 172 177 170 162 171 159 163 161 170 172 168 170 176 173
131 133 101 125 127 134 146 125 135 142 163 131 126 171 123 131 144 156 143 181 178 172 144 170 164 159 163 156 166 165 157 175 166 154 152 167 167 167 156 159 169 170 171 175 167
124 136 135 127 120 118 124 114 142 130 148 140 135 138 153 123 170 154 173 153 150 158 148 162 163 166 167 175 159 163 160 152 160 161 154 162 169 172 158 164 169 170 165 175 179
129 126 102 142 116 132 116 103 125 121 138 140 151 144 129 128 197 149 162 158 166 166 164 160 132 166 160 152 174 166 177 135 164 157 162 166 165 164 155 166 162 172 178 177 178
126 145 121 99 127 117 104 119 121 101 137 92 127 162 153 155 141 150 142 166 207 151 141 175 163 174 176 156 166 179 161 163 167 173 149 158 170 168 152 165 167 179 182 180 172
113 122 107 116 111 103 110 118 123 115 134 134 129 143 161 158 148 135 145 173 156 142 154 149 161 173 162 171 163 159 138 167 162 161 164 155 166 173 158 164 178 180 183 179 188
141 133 110 118 177 120 117 116 117 90 116 115 123 130 110 112 149 138 149 141 144 154 149 173 170 151 170 163 172 156 165 157 150 167 169 164 168 172 173 172 178 180 184 192 197
118 110 141 110 135 116 125 110 109 117 101 122 101 139 117 116 118 147 132 151 135 145 148 159 144 170 166 156 180 168 157 168 166 167 147 168 163 174 174 175 180 182 191 189 172
132 131 120 111 133 105 113 118 100 107 123 133 99 128 126 128 136 112 119 149 139 148 164 148 168 162 174 169 163 177 155 166 170 167 168 164 168 178 177 175 186 189 199 170 171
151 133 110 110 108 115 105 99 112 121 110 117 126 122 152 137 157 128 114 152 136 154 159 152 167 145 171 141 160 160 157 171 162 172 170 179 167 176 176 179 190 198 194 165 180
161 134 127 104 113 123 103 122 100 101 123 125 136 140 143 130 149 106 147 148 114 147 132 141 179 147 169 123 150 161 167 175 171 173 175 168 175 182 184 186 171 185 189 179 170
152 116 130 129 103 119 121 118 114 125 124 124 115 150 112 132 116 132 149 174 147 160 158 163 162 172 163 176 175 159 147 172 171 167 170 180 178 177 178 191 186 189 183 169 162
134 112 114 130 122 114 100 104 117 147 125 147 140 142 137 128 122 112 146 148 118 139 180 154 170 162 176 161 162 146 171 165 174 175 175 181 183 193 191 180 195 186 173 165 169
117 133 120 119 129 131 118 124 130 138 129 135 136 127 133 140 153 148 152 142 161 145 159 171 157 164 180 153 155 170 173 164 178 176 181 173 178 181 172 180 187 174 163 189 196
131 124 120 120 111 125 124 133 133 134 139 139 158 115 135 148 155 121 142 140 132 152 176 157 178 155 169 173 173 138 172 162 170 171 182 178 177 184 197 171 190 170 181 164 204
134 129 131 129 132 132 133 136 134 131 153 146 150 177 157 165 158 147 174 170 166 180 159 179 169 141 161 170 155 176 168 160 179 183 172 183 188 179 186 166 190 167 184 180 210
132 130 169 178 150 133 146 145 162 127 183 129 127 160 172 130 157 151 166 134 172 168 161 159 174 151 149 161 174 170 177 171 177 177 184 183 184 181 183 164 178 169 182 183 197
Wind_Speed
11 13 20 15 23 18 18 27 27 38 42 33 30 40 46 45 52 49 47 53 53 39 52 22 19 21 29 22 14 6 18 8 9 15 12 20 16 25 11 26 30 31 32 19 12
7 11 10 20 14 15 20 22 31 22 37 32 38 32 38 29 45 45 33 41 46 44 38 45 42 17 30 21 7 9 16 14 24 36 16 16 15 20 30 30 13 33 28 31 32
16 5 13 12 28 12 19 18 11 24 31 30 18 30 29 34 20 45 26 32 27 40 34 45 36 33 19 36 33 17 13 15 19 20 16 20 19 37 9 14 36 39 21 44 44
13 9 7 11 12 18 11 14 28 17 30 16 29 28 29 22 26 35 37 36 33 25 31 16 9 11 12 26 5 6 5 6 25 29 32 28 29 13 11 20 47 43 42 26 49
12 10 12 8 12 18 9 12 12 10 23 16 15 20 26 23 34 31 26 23 23 29 25 34 33 16 20 1 16 39 6 20 15 22 23 33 26 20 20 23 42 47 33 26 36
8 9 10 13 11 10 11 18 8 17 27 17 21 16 17 25 16 29 26 23 25 18 22 31 17 38 19 19 6 39 31 11 37 36 20 21 30 23 43 43 27 34 42 57 35
14 4 3 11 11 18 5 8 12 13 12 17 22 35 10 24 16 37 17 25 18 19 15 9 26 37 23 13 15 13 14 25 18 17 33 39 42 33 46 46 33 40 42 55 60
3 5 9 7 10 6 11 17 12 21 19 26 24 20 15 24 14 20 23 29 32 13 19 28 24 29 22 23 16 34 26 18 32 23 44 34 33 37 39 52 44 50 57 54 65
4 5 5 13 12 7 11 9 9 9 11 14 16 19 26 18 10 30 31 16 31 28 15 23 19 31 32 24 21 22 29 25 34 45 36 32 43 39 45 46 47 51 58 53 59
14 15 5 4 4 6 8 6 5 14 22 10 9 9 6 25 14 5 23 15 20 24 24 23 21 20 24 33 31 35 25 38 48 37 33 46 42 50 54 57 50 57 55 72 72
34 3 5 13 8 7 13 13 19 23 13 11 17 17 17 10 20 26 22 27 36 30 36 33 32 46 53 49 30 43 31 52 53 47 39 50 38 47 50 58 59 55 60 68 68
11 10 11 7 9 7 13 13 15 12 16 20 22 22 29 30 27 22 21 37 36 32 26 34 27 24 34 28 38 37 32 56 42 43 47 52 47 50 51 57 65 67 71 77 72
14 16 10 12 7 12 12 15 13 15 22 19 23 23 19 32 26 23 32 24 30 22 24 27 27 33 37 46 32 34 35 53 44 47 45 49 61 60 57 65 73 74 70 81 83
17 10 16 16 6 16 13 15 18 18 20 21 21 23 31 32 41 22 26 28 31 29 29 24 48 35 30 38 44 38 52 57 43 49 53 59 56 55 60 70 68 74 81 80 78
15 21 12 18 15 11 16 14 18 21 22 24 26 33 23 23 27 25 29 30 43 25 41 38 32 44 43 32 39 50 35 41 48 58 60 56 64 62 59 66 71 80 82 77 68
18 16 21 13 14 16 12 16 20 21 25 27 28 27 27 26 27 39 29 39 27 38 41 34 33 38 33 39 37 35 56 44 46 49 56 60 67 67 65 69 80 80 83 80 87
25 23 20 17 24 20 18 18 21 20 24 29 32 33 28 34 31 37 34 34 37 36 37 39 40 39 42 42 45 37 42 40 47 55 62 66 71 69 74 76 82 86 86 90 88
25 25 25 23 26 21 25 23 21 28 27 33 29 34 38 37 43 37 44 35 45 41 40 40 45 45 43 42 55 41 44 50 48 52 64 69 67 77 81 84 84 85 90 81 73
28 29 26 29 31 28 23 24 30 27 35 37 33 37 43 45 43 41 47 42 40 45 43 47 48 46 52 51 45 54 50 55 61 61 67 66 74 79 81 84 89 90 87 69 73
40 36 33 31 32 30 31 34 29 33 31 35 42 42 40 46 41 49 42 46 49 48 47 52 53 52 52 60 54 61 50 59 65 70 68 76 70 77 79 88 91 88 85 74 76
44 37 40 43 34 41 40 35 37 37 40 43 48 48 48 50 48 38 49 52 45 55 66 58 53 56 55 66 58 59 63 69 71 77 83 71 85 91 89 92 71 76 83 74 76
47 38 40 41 41 35 36 37 37 43 44 45 41 48 42 52 47 51 53 45 56 52 54 59 57 57 56 61 65 65 70 71 75 75 80 87 80 80 81 94 83 83 76 75 84
47 45 43 46 43 43 41 43 41 50 48 52 54 54 55 55 54 41 58 58 54 66 56 61 59 61 63 62 70 77 76 71 80 86 87 93 92 95 93 83 93 87 77 81 87
46 50 47 49 51 50 47 50 52 55 54 56 57 55 59 57 56 57 60 60 60 59 56 60 64 63 68 66 64 78 81 75 84 89 87 89 87 90 82 85 88 72 78 102 111
55 53 50 50 50 53 55 59 59 61 61 60 53 42 60 62 59 57 67 70 70 64 63 60 64 64 75 75 76 82 86 81 85 86 92 92 94 100 107 83 101 79 89 91 120
65 61 61 61 64 61 62 64 62 60 62 65 63 56 59 59 63 69 64 65 66 67 64 70 65 69 72 77 73 85 88 81 97 101 91 98 100 94 100 81 106 82 96 96 127
66 64 68 69 69 67 66 67 61 60 63 56 55 64 64 69 66 70 68 69 70 74 72 75 76 67 71 80 83 85 91 91 95 97 100 100 97 95 93 77 86 83 97 104 123
Wind_Direction
32 37 56 66 34 58 42 63 32 22 56 54 60 70 61 67 68 74 78 75 79 77 74 59 43 49 67 75 87 67 97 333 352 293 305 57 264 274 243 258 267 268 289 334 308
50 22 43 52 67 53 35 58 61 65 67 52 44 71 25 68 69 63 75 77 77 81 84 79 79 96 82 82 43 350 86 83 57 49 275 30 327 239 282 37 357 17 303 282 315
84 72 31 22 42 39 20 21 61 44 15 72 47 25 24 74 49 63 74 73 75 76 81 67 83 87 96 58 64 81 315 316 303 305 286 277 35 32 301 357 268 15 359 271 285
6 13 106 13 27 28 37 43 19 13 25 34 58 68 69 70 79 58 61 76 78 82 76 88 16 93 100 73 99 121 106 89 40 32 26 25 28 332 344 305 13 276 278 346 358
88 18 13 11 17 15 50 37 9 31 33 71 36 54 51 71 54 55 77 77 78 66 63 59 55 72 61 5 60 41 42 35 12 26 17 23 9 328 309 316 10 6 344 305 327
34 25 22 347 23 56 48 8 52 26 20 34 38 23 45 63 18 46 9 69 73 72 59 53 40 35 52 36 6 32 39 4 26 23 1 357 336 329 7 5 327 343 351 357 323
301 41 299 38 330 334 359 1 15 9 23 33 32 5 32 51 8 10 17 58 43 61 41 23 354 27 343 28 27 11 5 20 332 350 12 9 7 357 3 359 320 344 340 353 351
72 37 31 46 336 18 360 331 10 345 355 344 350 15 39 5 36 24 43 26 14 42 39 38 9 9 32 27 5 23 16 340 9 340 10 315 341 323 348 359 349 352 355 349 351
266 96 63 24 23 34 34 23 35 348 45 1 41 359 7 19 28 353 2 8 358 349 27 26 29 339 22 342 6 331 343 323 6 9 2 354 356 335 346 351 342 350 352 337 343
267 279 284 317 353 359 2 21 33 353 330 31 25 33 330 341 18 331 328 0 23 10 328 324 22 16 326 12 8 8 352 3 3 325 348 360 354 352 349 350 340 351 346 349 346
297 57 1 274 303 359 357 15 343 312 346 7 351 338 3 342 333 348 5 355 327 348 349 352 356 341 347 332 358 4 347 358 358 359 346 360 341 346 340 347 345 342 339 345 339
252 256 261 317 321 319 312 339 338 351 328 347 347 328 344 350 347 344 328 329 335 349 347 353 358 0 4 335 357 0 340 355 351 329 329 349 350 346 329 333 343 344 345 344 336
233 257 275 288 300 304 332 347 322 336 324 340 341 339 347 342 333 354 330 337 337 349 326 349 355 348 345 346 344 354 351 336 336 338 329 344 347 350 336 341 344 343 337 342 341
240 243 244 263 299 296 318 317 329 329 328 334 330 338 333 336 314 345 343 347 336 342 352 352 329 350 351 346 351 353 346 331 342 332 341 345 343 342 332 343 336 341 341 339 337
232 252 246 268 276 293 304 319 319 315 321 335 333 317 332 333 335 342 331 332 315 337 326 334 352 343 343 332 350 347 339 344 345 346 321 333 344 344 328 338 335 338 339 339 330
227 241 248 254 255 263 276 310 310 312 314 315 320 322 320 326 330 329 330 321 339 327 337 323 340 345 343 347 342 336 324 347 337 337 340 325 339 340 327 330 337 338 339 338 336
246 253 250 261 289 277 294 302 305 325 311 319 320 318 329 330 322 325 325 325 323 329 323 335 332 325 341 335 339 328 336 330 322 340 343 333 335 339 337 336 338 338 337 335 333
230 241 260 254 270 272 283 272 289 307 310 312 310 313 321 325 327 320 324 321 323 323 322 329 316 333 336 326 335 337 328 338 333 337 320 335 328 338 336 336 336 335 335 332 329
248 253 253 255 270 263 276 288 293 286 304 306 311 310 313 315 316 323 327 319 324 316 325 318 329 333 335 332 331 332 322 334 338 338 335 334 330 337 334 332 334 332 332 327 325
251 250 258 263 262 269 276 288 281 294 288 300 305 310 306 311 310 317 323 314 318 319 322 319 323 315 332 317 325 326 316 333 332 334 333 332 325 332 332 331 331 330 331 320 333
253 251 258 263 260 272 270 283 286 289 297 298 303 304 307 310 309 313 312 313 326 321 319 320 324 315 329 332 317 325 332 335 334 333 330 332 331 331 332 331 328 330 329 333 325
253 248 267 268 263 270 277 279 276 290 294 298 298 298 302 307 313 311 310 311 312 317 317 320 322 324 324 327 326 326 323 335 333 331 329 327 332 329 329 329 329 331 333 325 319
254 246 255 268 271 265 281 273 282 287 292 292 296 298 300 303 307 308 306 306 323 311 322 315 322 323 324 325 327 319 328 331 330 326 328 326 330 328 329 326 328 332 329 321 323
250 261 259 262 270 273 272 279 283 285 289 291 294 296 299 299 297 303 304 306 313 309 313 321 313 323 323 313 318 326 324 326 328 326 328 324 328 330 329 326 329 325 318 334 330
259 259 258 262 263 269 273 276 279 282 285 289 289 301 297 295 296 307 300 305 311 305 314 310 317 314 326 326 327 317 325 324 327 325 327 327 327 326 324 325 328 324 330 320 331
257 258 261 265 268 271 274 276 280 282 278 284 288 293 291 295 294 295 308 309 306 310 309 316 321 306 323 323 321 320 323 320 325 322 324 326 324 325 326 325 326 322 332 336 326
257 257 265 266 266 271 268 271 273 280 288 282 288 286 297 296 294 293 304 306 309 308 310 309 317 308 312 320 322 321 319 322 322 321 321 321 323 324 323 319 331 320 333 337 331